Location: Lussas
(44.6119°N, 4.4726°E)
Time: 05:38:07
(UTC+00:00)

USA 238 - Pass Details

Date: 26 November 2020
Orbit: 997 x 1215 km, 63.4° (Epoch: 11 January)

Event Time Altitude Azimuth Distance (km) Brightness Sun altitude
Exits shadow 05:06:00 28° 287° (WNW) 2,026 4.5 -18.7°
Maximum altitude 05:08:52 38° 245° (WSW) 1,716 4.4 -18.2°
Drops below altitude 10° 05:15:42 10° 180° (S) 3,139 6.3 -17.0°
Sets 05:18:40 0° 173° (S) 4,110 7.0 -16.5°
